Location: Dompierre
(49.9075°N, 2.8046°E)
Time: 07:30:20
(UTC+00:00)

Daily predictions for brighter satellites

Satellite Brightness Start Highest point End
(mag) Time Altitude Azimuth Time Altitude Azimuth Time Altitude Azimuth
BREEZE-M DEB (TANK) 4.4 16:07:07 10° WNW 16:11:04 73° N 16:27:33 10° E
SL-08 R/B 4.1 16:25:14 10° N 16:30:05 56° WNW 16:34:48 10° SSW
H-2A R/B 2.7 16:27:45 10° SSE 16:31:34 86° ENE 16:35:27 10° NNW
Abrixas rocket 3.4 16:29:36 10° W 16:32:11 34° SSW 16:34:44 10° SE
Cosmos 1500 Rocket 3.7 16:27:58 10° N 16:32:16 52° ENE 16:36:34 10° SSE
Cosmos 1570 Rocket 4.1 16:27:15 10° SSW 16:32:32 71° ESE 16:37:48 10° NNE
YAOGAN 6 2.7 16:32:50 10° SSE 16:36:25 55° ENE 16:39:59 10° N
NOSS 2-1 (C) 4.3 16:33:13 10° NW 16:38:07 86° SW 16:45:02 10° SE
CZ-4C R/B 3.3 16:34:41 10° NNE 16:38:15 52° E 16:41:47 10° S
Cosmos 2333 4.4 16:33:01 10° SW 16:38:42 76° WNW 16:44:22 10° NNE
Cosmos 405 Rocket 2.8 16:36:41 10° N 16:40:31 56° ENE 16:44:24 10° SSE
ADEOS Rocket 3.6 16:35:33 10° NNE 16:43:12 78° ESE 16:51:01 10° S
NOSS 2-1 (D) 4.4 16:38:40 10° NW 16:43:35 80° SW 16:50:32 10° SE
Cosmos 372 Rocket 4.4 16:39:33 10° NNW 16:44:41 69° WSW 16:49:49 10° SSE
Cosmos 1943 Rocket 3.4 16:41:17 10° N 16:45:26 21° NE 16:49:34 10° E
Cosmos 405 2.9 16:43:13 10° S 16:46:42 74° E 16:50:12 10° NNE
YAOGAN 1 4.3 16:45:15 10° E 16:47:06 13° NE 16:48:57 10° NNE
Cosmos 1763 Rocket 4.4 16:42:31 10° SW 16:47:24 46° WNW 16:52:18 10° NNE
Cosmos 389 Rocket 4.1 16:45:23 10° SE 16:47:31 16° E 16:49:22 11° NE
Cosmos 44 4.3 16:44:04 10° NNW 16:48:41 31° NE 16:53:26 10° E
BREEZE-M DEB (TANK) 2.9 16:49:15 10° SW 16:51:21 30° SSE 16:53:02 12° E
H-2A R/B 2.6 16:47:20 10° SSE 16:51:41 83° WSW 16:55:55 10° NNW
Cosmos 2322 Rocket 3.9 16:47:12 10° W 16:51:55 26° NW 16:56:41 10° NNE
USA 215 4.0 16:47:52 10° ENE 16:53:49 36° SE 16:59:43 10° SSW
SL-16 R/B 3.7 16:51:12 10° SE 16:54:27 16° E 16:56:52 12° ENE
Cosmos 1743 Rocket 3.6 16:50:08 10° N 16:54:39 87° E 16:59:06 10° S
COSMO-SKYMED 1 4.1 16:52:07 10° NE 16:54:59 17° E 16:57:53 10° SE
NOAA 6 4.3 16:51:09 10° S 16:56:18 75° WSW 17:01:29 10° NNW
Cosmos 2298 Rocket 4.1 16:50:59 10° NNW 16:56:20 87° WSW 17:01:39 10° SSE
CZ-2C R/B 4.2 16:53:33 10° ESE 16:57:10 20° ENE 17:00:42 10° NNE
Cosmos 2150 Rocket 4.0 16:52:32 10° NNW 16:57:45 90° ENE 17:02:54 10° SSE
Okean-O 4.0 16:55:23 10° ESE 16:58:25 18° ENE 17:01:28 10° NNE
Cosmos 1818 3.6 16:53:37 10° NW 16:59:08 88° SW 17:04:36 10° SE
PAYLOAD B 4.5 16:53:38 10° SSE 16:59:13 78° WSW 17:04:50 10° NNW
Cosmos 1900 4.4 16:56:19 10° SSW 17:01:24 75° SE 17:06:28 11° NE
AQUARIUS 4.1 16:57:54 10° SSE 17:02:22 70° ENE 17:06:52 10° N
Sich 1 3.4 16:59:30 10° N 17:03:45 43° ENE 17:07:56 10° SSE
Cosmos 1606 3.6 17:01:41 10° SSE 17:05:05 30° E 17:08:31 10° NNE
Cosmos 1842 Rocket 4.0 17:05:02 10° SSW 17:09:19 63° WNW 17:13:38 10° N
Okean O Rocket 1.5 17:05:01 10° SSE 17:09:21 83° ENE 17:13:46 10° NNW
Cosmos 2333 Rocket 2.7 17:03:54 10° SW 17:09:31 59° NW 17:15:09 10° NNE
Helios 1A Rocket 4.1 17:07:58 10° ESE 17:10:58 21° ENE 17:13:59 10° NNE
ISS -2.8 17:08:35 10° SW 17:11:42 36° SSE 17:13:33 20° E
Radarsat Rocket 4.5 17:06:07 10° S 17:12:05 70° WSW 17:18:43 10° NNW
Cosmos 1125 Rocket 3.5 17:07:19 10° NNW 17:12:33 86° ENE 17:17:46 10° SSE
Nadezhda 1 Rocket 4.0 17:06:22 10° S 17:12:41 78° E 17:19:06 10° NNE
Cosmos 1356 3.8 17:10:15 10° N 17:13:31 40° ENE 17:16:47 10° SE
Cosmos 1805 Rocket 3.5 17:10:15 10° N 17:14:44 73° ENE 17:19:10 10° SSE
COSMOS 2428 3.1 17:09:17 10° SW 17:15:00 67° WNW 17:20:44 10° NNE
Cosmos 2208 Rocket 4.4 17:12:05 10° SW 17:17:20 65° WNW 17:22:41 10° NNE
Feng Yun 1-1 Rocket 4.4 17:11:42 10° SE 17:17:20 56° ENE 17:22:51 10° N
CZ-4B R/B 1.8 17:17:16 21° NE 17:18:47 35° E 17:21:39 10° SSE
Cosmos 2278 Rocket 2.8 17:14:06 10° NW 17:19:43 62° WSW 17:25:18 10° SSE
Cosmos 1666 Rocket 3.9 17:16:42 10° N 17:20:53 42° ENE 17:25:06 10° SE
Cosmos 1151 Rocket 4.0 17:18:57 10° SE 17:22:25 24° E 17:23:24 22° ENE
Cosmos 2154 Rocket 4.3 17:17:39 10° NNW 17:23:59 76° W 17:30:19 10° S
CRYOSAT 2 4.3 17:19:41 10° N 17:24:36 85° E 17:29:30 10° S
Cosmos 1862 4.2 17:20:51 10° NNW 17:24:48 52° W 17:28:42 10° S
Cosmos 962 Rocket 4.4 17:20:18 10° N 17:26:38 74° ENE 17:32:51 10° SSE
IRS-1C Rocket 4.2 17:21:40 10° SE 17:26:45 51° ENE 17:31:51 10° N
USA 267 3.2 17:21:54 10° ESE 17:28:26 78° NNE 17:34:59 10° WNW
Lacrosse 5 rocket 3.4 17:27:46 10° SE 17:28:08 10° SE 17:28:08 10° SE
ERS-2 2.3 17:29:46 19° NNE 17:32:09 49° ESE 17:35:42 10° S
Cosmos 482 Debris 3.5 17:30:36 10° WNW 17:31:55 36° NW 17:31:55 36° NW
Cosmos 2360 Rocket 4.1 17:28:26 10° W 17:32:54 24° NW 17:37:23 10° NNE
Cosmos 2341 Rocket 3.9 17:26:41 10° N 17:32:59 74° E 17:39:17 10° SSE
Meteor 1-25 Rocket 4.3 17:28:12 10° N 17:33:41 52° ENE 17:39:10 10° SSE
NOSS 0 Rocket 4.0 17:28:39 10° SSW 17:34:55 88° WNW 17:40:49 12° NNE
CZ-2D R/B 3.5 17:32:41 10° SE 17:36:19 44° ENE 17:39:59 10° N
CZ-4 R/B 1.9 17:38:23 28° ESE 17:39:38 35° ENE 17:43:18 10° N
H-2A R/B 2.9 17:36:26 10° N 17:40:27 50° WNW 17:44:31 10° SW
Cosmos 2219 Rocket 3.3 17:35:18 10° WSW 17:40:38 41° NW 17:45:58 10° NNE
TELKOM 3 4.4 17:39:23 10° SW 17:41:32 27° SSE 17:41:32 27° SSE
SMAP 4.3 17:38:48 10° S 17:43:14 44° W 17:47:43 10° NNW
BREEZE-M DEB (TANK) 3.2 17:41:28 10° SW 17:43:13 23° SSE 17:43:13 23° SSE
SKYMED 2 3.8 17:40:45 20° NNE 17:43:28 47° E 17:47:39 10° S
CZ-4B R/B 4.2 17:39:21 10° S 17:44:30 47° W 17:49:37 10° NNW
USA 81 4.0 17:39:25 10° N 17:44:40 60° E 17:49:53 10° SSE
CREW DRAGON DEMO-1 DEB 2.8 17:44:14 10° WNW 17:47:13 71° SSW 17:47:43 54° SE
Cosmos 2285 Rocket 4.0 17:41:32 10° NNW 17:47:56 64° ENE 17:54:15 10° SE
Cosmos 2237 Rocket 2.2 17:44:14 10° SSW 17:49:52 85° WNW 17:54:26 16° NNE
Cosmos 1633 Rocket 2.9 17:47:17 10° N 17:51:41 70° E 17:56:02 10° SSE
Cosmos 1939 Rocket 2.7 17:48:07 10° SSE 17:51:58 89° W 17:55:54 10° NNW
H-2A R/B 2.4 17:52:26 23° ESE 17:55:11 40° ENE 18:00:01 10° N
Cosmos 864 Rocket 4.4 17:50:50 10° N 17:57:10 68° ENE 18:03:24 10° SSE
SL-8 Rocket 3.9 17:50:55 10° N 17:57:10 83° E 18:03:26 10° S
Cosmos 2369 Rocket 2.6 17:56:03 10° NNW 18:01:23 39° NE 18:02:09 37° ENE
CSL-04 Rocket 3.9 18:01:44 36° E 18:03:00 42° ENE 18:08:00 10° N
USA 281 3.1 17:56:33 10° SSE 18:03:06 83° ENE 18:09:43 10° NNW
MOS 1 Rocket 3.9 18:03:47 39° ENE 18:04:46 42° E 18:09:55 10° SSE
Cosmos 2181 Rocket 3.9 17:59:25 10° S 18:05:51 77° E 18:12:14 10° NNE
Cosmos 1959 Rocket 4.4 17:59:51 10° N 18:06:15 81° E 18:12:37 10° SSE
Cosmos 1980 4.1 18:02:30 10° SW 18:08:07 62° WNW 18:12:27 18° NNE
Cosmos 1821 Rocket 4.3 18:04:57 10° N 18:10:47 41° ENE 18:11:29 40° E
Cosmos 1241 Rocket 4.5 18:06:38 10° NW 18:13:16 79° NE 18:17:23 25° SE
Cosmos 389 Rocket 3.8 18:18:42 10° SW 18:21:55 37° WNW 18:23:14 26° NNW
YAOGAN 1 2.4 18:21:23 50° SSE 18:22:30 84° ENE 18:26:52 10° NNW
SL-08 R/B 4.3 18:19:42 10° N 18:25:54 72° ENE 18:32:00 10° SSE
Cosmos 2297 4.0 18:21:18 10° NNW 18:26:57 66° WSW 18:32:35 10° SSE
Cosmos 1470 Rocket 3.4 18:22:44 10° N 18:27:06 89° W 18:27:22 79° S
Cosmos 1933 3.8 18:24:24 10° SSW 18:28:23 59° WNW 18:29:42 38° NNW
Cosmos 1943 Rocket 2.0 18:24:27 10° NNW 18:30:02 84° ENE 18:31:41 48° SE
Meteor 1-14 Rocket 4.2 18:24:23 10° N 18:30:21 80° ENE 18:36:20 10° SSE
Cosmos 44 3.7 18:25:07 10° NW 18:30:23 71° SW 18:32:40 35° SSE
COSMO-SKYMED 1 3.0 18:29:20 27° N 18:31:32 59° WNW 18:35:48 10° SSW
Okean-O 3.0 18:30:03 10° S 18:34:27 65° WSW 18:38:53 10° NNW
PSLV R/B 4.3 18:36:54 61° SW 18:36:54 61° SW 18:40:22 10° SSW
CZ-2C R/B 3.2 18:31:30 10° S 18:36:38 69° WSW 18:41:33 10° NNW
SJ-11-01 4.5 18:37:47 61° N 18:37:47 61° N 18:41:43 10° NNW
Cosmos 1867 3.5 18:31:43 10° SW 18:37:10 86° NW 18:37:58 66° NNE
USA 215 3.2 18:35:13 48° ENE 18:37:18 87° NNW 18:43:52 10° WSW
SL-16 R/B 2.1 18:32:03 10° SSW 18:37:43 87° ESE 18:38:47 61° NNE
ARGOS 3.3 18:38:31 58° NNE 18:38:31 58° NNE 18:43:06 10° N
Meteor 1-26 Rocket 4.4 18:37:00 10° SSW 18:43:01 82° WNW 18:47:59 16° N
Helios 1A Rocket 3.8 18:43:48 24° SSW 18:45:51 46° W 18:49:46 10° NNW
ISS -1.4 18:45:01 10° W 18:46:31 24° W 18:46:31 24° W
CZ-4B R/B 4.1 18:50:24 15° NW 18:50:47 15° WNW 18:52:37 10° W
Cosmos 2333 Rocket 4.5 18:51:24 10° WNW 18:55:03 17° NNW 18:58:12 11° N
Cosmos 1151 Rocket 4.4 18:55:48 10° SW 18:59:47 37° WNW 19:00:18 36° NW
Lacrosse 5 rocket 4.0 19:03:30 10° SW 19:03:47 12° SW 19:03:47 12° SW
USA 267 4.1 19:09:07 30° S 19:11:46 44° SW 19:17:58 10° WNW
CZ-4 R/B 3.6 19:14:25 23° WSW 19:14:45 24° W 19:18:01 10° NW
H-2A R/B 3.5 19:33:03 29° SW 19:34:39 35° W 19:39:26 10° NNW
Cosmos 2237 Rocket 4.2 19:30:32 10° W 19:34:47 22° NW 19:36:16 20° NNW
Cosmos 2369 Rocket 3.5 19:40:07 10° NW 19:43:59 36° WNW 19:43:59 36° WNW
SL-16 R/B 4.5 20:18:07 10° W 20:20:43 20° WNW 20:20:43 20° WNW
